Location: Ash Swamp
(41.5170°N, 74.6157°W)
Time: 17:06:44
(UTC+00:00)

Okean 2 Rocket - Pass Details

Date: 14 July 2020
Orbit: 617 x 641 km, 82.5° (Epoch: 05 August)

Event Time Altitude Azimuth Distance (km) Brightness Sun altitude
Rises 08:39:31 0° 174° (S) 2,876 6.1 -9.7°
Reaches altitude 10° 08:41:46 10° 170° (S) 1,975 5.4 -9.3°
Maximum altitude 08:46:01 53° 94° (E) 766 3.9 -8.7°
Drops below altitude 10° 08:50:18 10° 18° (NNE) 1,992 6.6 -8.1°
Sets 08:52:34 0° 13° (NNE) 2,905 7.4 -7.8°
